TIANLIAN 1-01

Last updated on May 23, 2019, 3:05 a.m. UTC

1 32779U 08019A   19142.12061852 -.00000147  00000-0  00000+0 0  9990
2 32779   3.2948  73.7427 0032796 251.8899  37.2540  1.00274261 40564
UTC
Height (km)
Latitude
Longitude
Inclination
Orbital Period
UTC large
Height (km)
Speed (km/s)
/
Latitude / Longitude
Inclination (degrees)
Orbital Period (minutes)
Azimuth
Elevation
Range (km)
Doppler Factor
iOS Compass Heading
iOS Angle

Next 30 passes for location: Hong Kong

Rise time Rise Azimuth (degrees) Set time Set Azimuth (degrees) Duration Max altitude (degrees)

No matching passes for this satellites